Content
SEND FEEDBACK

Daily
Averages
Monthly
Summary
United States of America

HAZELWOOD, MISSOURI


Home > North America > United States > Missouri
Elevation: 570 feet     Latitude: 38 45N     Longitude: 090 22W

WEATHER
 
SELECT A DAY
Number of Records: 199,751;   Date Range: 1/1/95 - 10/24/14
 
SHARE

PRINT THIS DATA

[ ← Previous Day ]
WEATHER ALMANAC - MAY 4, 2013
[ Next Day → ]
[ °C ]   °F
Weather ElementAverageHighLow
Temperature44 °F51.1 °F (4:54 pm)39.2 °F (4:14 am)
Dewpoint38.6 °F43 °F (10:54 pm)35.6 °F (5:15 am)
Humidity81.7 %93 % (12:54 am)63 % (5:54 pm)
Barometer29.92 in30.02 in (9:54 pm)29.86 in (1:54 am)
Wind Speed3.8 mph9.2 mph (2:54 pm)
Weather ElementAverage
Visibility10 mi
Wind DirectionENE (83.5 °)

Weather ElementTotal
Precipitation---
Heating Degree Days19.9 (Base 65)
Averaged from 31 records on May 4, 2013
WEATHER CONDITIONS BREAKOUT
WIND DIRECTION BREAKOUT
WEATHER BY HOUR - MAY 4, 2013
[ °C ]   °F
Local TimeTemperatureDewpointHumidityBarometerVisibilityWind DirectionWind SpeedGust SpeedPrecipitationEventsConditions
12:54 AM39.9 °F37.9 °F93 %29.87 in10.0 miSW (230°)5.8 mphOvercast
1:54 AM39.9 °F37.0 °F89 %29.86 in10.0 miSSW (210°)3.5 mph0.00 inOvercast
2:54 AM39.9 °F37.0 °F89 %29.87 in10.0 miSSW (200°)3.5 mphOvercast
3:54 AM39.9 °F37.0 °F89 %29.87 in10.0 miCalmOvercast
4:14 AM39.2 °F37.4 °F93 %29.86 in10.0 miCalmOvercast
4:26 AM39.2 °F37.4 °F93 %29.86 in10.0 miSSW (210°)3.5 mphOvercast
4:54 AM39.9 °F37.0 °F89 %29.88 in10.0 miSouth (170°)3.5 mphOvercast
5:15 AM39.2 °F35.6 °F87 %29.86 in10.0 miCalmOvercast
5:32 AM39.2 °F37.4 °F93 %29.87 in10.0 miCalmOvercast
5:54 AM39.9 °F37.0 °F89 %29.88 in10.0 miCalmOvercast
6:54 AM39.9 °F37.0 °F89 %29.91 in10.0 miCalmMostly Cloudy
7:14 AM41.0 °F37.4 °F87 %29.89 in10.0 miCalmScattered Clouds
7:22 AM39.2 °F37.4 °F93 %29.90 in10.0 miCalmMostly Cloudy
7:54 AM41.0 °F37.0 °F86 %29.93 in10.0 miEast (90°)3.5 mphMostly Cloudy
8:54 AM43.0 °F37.0 °F80 %29.93 in10.0 miSSE (160°)4.6 mphMostly Cloudy
9:54 AM43.0 °F37.0 °F80 %29.93 in10.0 miSouth (170°)5.8 mphMostly Cloudy
10:01 AM42.8 °F35.6 °F76 %29.92 in10.0 miSouth (170°)5.8 mphOvercast
10:54 AM45.0 °F37.9 °F76 %29.94 in10.0 miVariable3.5 mphOvercast
11:54 AM45.0 °F37.9 °F76 %29.94 in10.0 miVariable3.5 mphOvercast
12:54 PM46.9 °F39.0 °F74 %29.94 in10.0 miENE (60°)5.8 mphOvercast
1:54 PM48.0 °F39.0 °F71 %29.94 in10.0 miENE (70°)6.9 mphOvercast
2:54 PM48.9 °F39.9 °F71 %29.94 in10.0 miENE (60°)9.2 mphOvercast
3:54 PM50.0 °F41.0 °F71 %29.95 in10.0 miNE (40°)6.9 mphOvercast
4:54 PM51.1 °F41.0 °F68 %29.95 in10.0 miEast (90°)6.9 mphOvercast
5:54 PM51.1 °F39.0 °F63 %29.95 in10.0 miENE (70°)4.6 mphOvercast
6:54 PM50.0 °F39.0 °F66 %29.96 in10.0 miNE (50°)5.8 mphOvercast
7:54 PM48.9 °F42.1 °F77 %29.98 in10.0 miNE (40°)4.6 mphOvercast
8:54 PM48.9 °F42.1 °F77 %30.01 in10.0 miENE (60°)8.1 mphOvercast
9:54 PM48.0 °F42.1 °F80 %30.02 in10.0 miENE (60°)6.9 mphOvercast
10:54 PM48.0 °F43.0 °F83 %30.01 in10.0 miNNE (20°)3.5 mphOvercast
11:54 PM46.9 °F43.0 °F86 %30.01 in10.0 miNorth (360°)3.5 mphMostly Cloudy
Hourly data recorded from KSUS, located miles away from Hazelwood, Missouri







STORIES FROM OUR PARTNERS